This is the latest recevied weather packets stored in our database for station/object W4FXD. If no packets are shown the sender has not sent any weather packets the latest 10 day(s).
| Time | Temp. | Humidity | Pressure | Rain* | Wind** | Luminosity | Snow |
|---|---|---|---|---|---|---|---|
| 1777500405 | 22.78° C | 78% | 1011 hPa | 0 mm | - | 75 W/m² | - |
| 1777500101 | 22.78° C | 78% | 1010.7 hPa | 0 mm | - | 68 W/m² | - |
| 1777499798 | 23.33° C | 77% | 1010.5 hPa | 0 mm | - | 83 W/m² | - |
| 1777499494 | 22.78° C | 77% | 1010.5 hPa | 0 mm | - | 96 W/m² | - |
| 1777499193 | 22.78° C | 77% | 1010.6 hPa | 0 mm | - | 86 W/m² | - |
| 1777498889 | 22.78° C | 78% | 1010.5 hPa | 0 mm | - | 88 W/m² | - |
| 1777498586 | 22.78° C | 78% | 1010.4 hPa | 0 mm | - | 85 W/m² | - |
| 1777498282 | 22.78° C | 77% | 1010.6 hPa | 0 mm | - | 59 W/m² | - |
| 1777497981 | 23.33° C | 79% | 1010.4 hPa | 0 mm | - | 57 W/m² | - |
| 1777497676 | 22.78° C | 80% | 1010.3 hPa | 0 mm | - | 101 W/m² | - |
| 1777497373 | 22.78° C | 81% | 1010.4 hPa | 0 mm | - | 102 W/m² | - |
| 1777497069 | 23.33° C | 83% | 1010.3 hPa | 0 mm | - | 124 W/m² | - |
| 1777496765 | 22.78° C | 83% | 1010.3 hPa | 0 mm | - | 143 W/m² | - |
| 1777496462 | 22.78° C | 83% | 1010.3 hPa | 0 mm | - | 148 W/m² | - |
| 1777496159 | 22.78° C | 82% | 1010.5 hPa | 0 mm | - | 142 W/m² | - |
| 1777495855 | 22.78° C | 83% | 1010.5 hPa | 0 mm | - | 153 W/m² | - |
| 1777495551 | 22.78° C | 84% | 1010.5 hPa | 0 mm | - | 151 W/m² | - |
| 1777495247 | 22.78° C | 84% | 1010.7 hPa | 0 mm | - | 157 W/m² | - |
| 1777494945 | 22.22° C | 85% | 1010.6 hPa | 0 mm | - | 163 W/m² | - |
| 1777494642 | 22.22° C | 84% | 1010.8 hPa | 0 mm | - | 190 W/m² | - |
| 1777494339 | 22.22° C | 84% | 1010.9 hPa | 0 mm | - | 209 W/m² | - |
| 1777494035 | 21.67° C | 85% | 1010.6 hPa | 0 mm | - | 228 W/m² | - |
| 1777493733 | 22.22° C | 86% | 1010.8 hPa | 0 mm | - | 166 W/m² | - |
| 1777493432 | 22.22° C | 88% | 1010.6 hPa | 0 mm | - | 187 W/m² | - |
| 1777493127 | 22.22° C | 87% | 1010.9 hPa | 0 mm | - | 194 W/m² | - |
* Rain latest hour (hover to see other rain measurements)
** Current wind speed in m/s (hover to see current wind gust speed)